Location: Barcelona
(41.3830°N, 2.1830°E)
Time: 01:30:16
(UTC+02:00)

ISS - Pass Details

Date: 14 July 2019
Orbit: 409 x 418 km, 51.6° (Epoch: 23 July)

Event Time Altitude Azimuth Distance (km) Brightness Sun altitude
Exits shadow 03:08:40 - 303° (WNW) 1,866 -0.3 -24.7°
Reaches altitude 10° 03:10:03 10° 319° (NW) 1,483 -0.6 -24.6°
Maximum altitude 03:11:59 14° 355° (N) 1,242 -0.6 -24.5°
Drops below altitude 10° 03:13:54 10° 30° (NNE) 1,481 0.0 -24.4°
Sets 03:16:43 0° 56° (ENE) 2,341 0.9 -24.2°
